• En España
  • Lista de países
  • Para 7 días
  • Temperatura del agua
  • Mapa Satelital
  • El tiempo en el mapa
  • Informadores
  • user-avatar
    Iniciar sesión

    Tiempo cada hora Galway

    Hoy, 19 Septiembre, Miércoles

    Tiempo Temperatura Precipitaciones Viento Presión Humedad
    00:00 +10°C° 0.7 mm 5 mps 749 mmHg 85%
    01:00 +10°C° 0.7 mm 5 mps 748 mmHg 89%
    02:00 +10°C° 0.7 mm 5 mps 747 mmHg 93%
    03:00 +11°C° 2.3 mm 8 mps 746 mmHg 92%
    04:00 +12°C° 2.3 mm 11 mps 744 mmHg 91%
    05:00 +14°C° 0 mm 13 mps 740 mmHg 91%
    06:00 +13°C° 0.4 mm 14 mps 741 mmHg 85%
    07:00 +12°C° 0.4 mm 14 mps 743 mmHg 80%
    08:00 +10°C° 0.4 mm 15 mps 744 mmHg 74%
    09:00 +10°C° 0.1 mm 14 mps 746 mmHg 71%
    10:00 +10°C° 0.1 mm 13 mps 748 mmHg 68%
    11:00 +12°C° 0 mm 12 mps 750 mmHg 64%
    12:00 +12°C° 0.1 mm 11 mps 751 mmHg 64%
    13:00 +12°C° 0.1 mm 11 mps 752 mmHg 64%
    14:00 +12°C° 0.1 mm 10 mps 752 mmHg 64%
    15:00 +11°C° 0.1 mm 9 mps 753 mmHg 66%
    16:00 +11°C° 0.1 mm 9 mps 753 mmHg 68%
    17:00 +10°C° 0.1 mm 8 mps 753 mmHg 70%
    18:00 +10°C° 0 mm 7 mps 754 mmHg 70%
    19:00 +10°C° 0 mm 7 mps 754 mmHg 70%
    20:00 +9°C° 0 mm 7 mps 754 mmHg 70%
    21:00 +9°C° 0 mm 6 mps 755 mmHg 72%
    22:00 +9°C° 0 mm 6 mps 755 mmHg 73%
    23:00 +9°C° 0 mm 5 mps 755 mmHg 75%

    Mañana, 20 Septiembre, Jueves

    Tiempo Temperatura Precipitaciones Viento Presión Humedad
    00:00 +8°C° 0 mm 5 mps 755 mmHg 77%
    01:00 +8°C° 0 mm 5 mps 755 mmHg 80%
    02:00 +8°C° 0 mm 4 mps 755 mmHg 82%
    03:00 +7°C° 0 mm 4 mps 755 mmHg 84%
    04:00 +8°C° 0 mm 3 mps 755 mmHg 85%
    05:00 +8°C° 0 mm 3 mps 754 mmHg 87%
    06:00 +9°C° 0 mm 3 mps 754 mmHg 85%
    07:00 +10°C° 0 mm 3 mps 754 mmHg 83%
    08:00 +12°C° 0 mm 2 mps 754 mmHg 81%
    09:00 +12°C° 0.4 mm 2 mps 753 mmHg 83%
    10:00 +12°C° 0.4 mm 2 mps 752 mmHg 84%
    11:00 +12°C° 0.4 mm 2 mps 751 mmHg 85%
    12:00 +10°C° 1.8 mm 2 mps 751 mmHg 89%
    13:00 +9°C° 1.8 mm 2 mps 750 mmHg 92%
    14:00 +10°C° 1.8 mm 1 mps 749 mmHg 95%
    15:00 +9°C° 0.6 mm 2 mps 749 mmHg 95%
    16:00 +8°C° 0.6 mm 2 mps 749 mmHg 95%
    17:00 +8°C° 0.6 mm 3 mps 749 mmHg 94%
    18:00 +8°C° 0.2 mm 3 mps 749 mmHg 93%
    19:00 +7°C° 0.2 mm 4 mps 750 mmHg 91%
    20:00 +7°C° 0.2 mm 5 mps 750 mmHg 89%
    21:00 +7°C° 0.2 mm 5 mps 751 mmHg 88%
    22:00 +7°C° 0.2 mm 5 mps 751 mmHg 87%
    23:00 +7°C° 0.2 mm 6 mps 751 mmHg 86%

    Pasado mañana, 21 Septiembre, Viernes

    Tiempo Temperatura Precipitaciones Viento Presión Humedad
    00:00 +7°C° 0.2 mm 6 mps 751 mmHg 86%
    01:00 +6°C° 0.2 mm 7 mps 751 mmHg 87%
    02:00 +6°C° 0.2 mm 7 mps 751 mmHg 87%
    03:00 +6°C° 0.4 mm 7 mps 752 mmHg 87%
    04:00 +6°C° 0.4 mm 7 mps 753 mmHg 87%
    05:00 +8°C° 0.4 mm 7 mps 753 mmHg 87%
    06:00 +9°C° 0.1 mm 7 mps 754 mmHg 85%
    07:00 +9°C° 0.1 mm 7 mps 755 mmHg 83%
    08:00 +10°C° 0.1 mm 7 mps 756 mmHg 81%
    09:00 +11°C° 0.2 mm 7 mps 757 mmHg 78%
    10:00 +11°C° 0.2 mm 7 mps 757 mmHg 75%
    11:00 +11°C° 0.2 mm 7 mps 758 mmHg 72%
    12:00 +11°C° 0.2 mm 7 mps 758 mmHg 72%
    13:00 +11°C° 0.2 mm 6 mps 759 mmHg 72%
    14:00 +11°C° 0.2 mm 6 mps 759 mmHg 71%
    15:00 +12°C° 0.1 mm 5 mps 760 mmHg 74%
    16:00 +10°C° 0.1 mm 5 mps 760 mmHg 77%
    17:00 +10°C° 0.1 mm 4 mps 761 mmHg 79%
    18:00 +8°C° 0 mm 4 mps 762 mmHg 81%
    19:00 +8°C° 0 mm 3 mps 762 mmHg 84%
    20:00 +7°C° 0 mm 3 mps 763 mmHg 86%
    21:00 +7°C° 0 mm 3 mps 763 mmHg 86%
    22:00 +7°C° 0 mm 3 mps 763 mmHg 87%
    23:00 +7°C° 0 mm 3 mps 763 mmHg 87%

    22 Septiembre, Sábado

    Tiempo Temperatura Precipitaciones Viento Presión Humedad
    00:00 +7°C° 0 mm 3 mps 763 mmHg 86%
    01:00 +7°C° 0 mm 3 mps 764 mmHg 86%
    02:00 +7°C° 0 mm 2 mps 764 mmHg 86%
    03:00 +7°C° 0 mm 2 mps 764 mmHg 85%
    04:00 +7°C° 0 mm 2 mps 764 mmHg 85%
    05:00 +7°C° 0 mm 2 mps 764 mmHg 84%
    06:00 +9°C° 0 mm 1 mps 764 mmHg 82%
    07:00 +10°C° 0 mm 1 mps 764 mmHg 79%
    08:00 +11°C° 0 mm 1 mps 764 mmHg 76%
    09:00 +12°C° 0 mm 1 mps 764 mmHg 72%
    10:00 +13°C° 0 mm 1 mps 764 mmHg 69%
    11:00 +13°C° 0 mm 1 mps 764 mmHg 65%
    12:00 +13°C° 0 mm 1 mps 764 mmHg 66%
    13:00 +13°C° 0 mm 1 mps 764 mmHg 67%
    14:00 +13°C° 0 mm 1 mps 764 mmHg 68%
    15:00 +12°C° 0 mm 1 mps 763 mmHg 72%
    16:00 +12°C° 0 mm 2 mps 763 mmHg 76%
    17:00 +10°C° 0 mm 2 mps 762 mmHg 80%
    18:00 +9°C° 0.6 mm 3 mps 762 mmHg 83%
    19:00 +8°C° 0.6 mm 4 mps 761 mmHg 85%
    20:00 +7°C° 0.6 mm 5 mps 761 mmHg 88%
    21:00 +7°C° 2.6 mm 5 mps 760 mmHg 90%
    22:00 +7°C° 2.6 mm 6 mps 758 mmHg 92%
    23:00 +5°C° 2.6 mm 7 mps 757 mmHg 95%

    23 Septiembre, Domingo

    Tiempo Temperatura Precipitaciones Viento Presión Humedad
    00:00 +5°C° 3.6 mm 8 mps 756 mmHg 94%
    01:00 +5°C° 3.6 mm 8 mps 755 mmHg 94%
    02:00 +3°C° 3.6 mm 9 mps 754 mmHg 93%
    03:00 +3°C° 1.9 mm 9 mps 754 mmHg 92%
    04:00 +3°C° 1.9 mm 9 mps 754 mmHg 91%
    05:00 +3°C° 1.9 mm 9 mps 755 mmHg 90%
    06:00 +5°C° 0.5 mm 9 mps 756 mmHg 89%
    07:00 +5°C° 0.5 mm 8 mps 758 mmHg 87%
    08:00 +6°C° 0.5 mm 8 mps 759 mmHg 86%
    09:00 +7°C° 0 mm 8 mps 761 mmHg 79%
    10:00 +10°C° 0 mm 8 mps 762 mmHg 72%
    11:00 +11°C° 0 mm 8 mps 764 mmHg 65%
    12:00 +11°C° 0 mm 7 mps 765 mmHg 64%
    13:00 +12°C° 0 mm 7 mps 766 mmHg 63%
    14:00 +13°C° 0 mm 6 mps 767 mmHg 63%
    15:00 +11°C° 0 mm 6 mps 768 mmHg 67%
    16:00 +10°C° 0 mm 5 mps 769 mmHg 71%
    17:00 +10°C° 0 mm 4 mps 770 mmHg 75%
    18:00 +8°C° 0 mm 4 mps 771 mmHg 79%
    19:00 +8°C° 0 mm 3 mps 772 mmHg 82%
    20:00 +7°C° 0 mm 3 mps 773 mmHg 85%
    21:00 +7°C° 0 mm 3 mps 774 mmHg 85%
    22:00 +6°C° 0 mm 2 mps 774 mmHg 85%
    23:00 +6°C° 0 mm 2 mps 775 mmHg 85%

    24 Septiembre, Lunes

    Tiempo Temperatura Precipitaciones Viento Presión Humedad
    00:00 +6°C° 0 mm 2 mps 775 mmHg 85%
    01:00 +6°C° 0 mm 2 mps 776 mmHg 86%
    02:00 +6°C° 0 mm 2 mps 776 mmHg 87%
    03:00 +6°C° 0 mm 2 mps 776 mmHg 87%
    04:00 +6°C° 0 mm 2 mps 776 mmHg 87%
    05:00 +6°C° 0 mm 2 mps 777 mmHg 87%
    06:00 +7°C° 0 mm 3 mps 777 mmHg 83%
    07:00 +9°C° 0 mm 3 mps 777 mmHg 79%
    08:00 +10°C° 0 mm 3 mps 778 mmHg 75%
    09:00 +11°C° 0 mm 4 mps 778 mmHg 72%
    10:00 +12°C° 0 mm 4 mps 778 mmHg 69%
    11:00 +13°C° 0 mm 4 mps 778 mmHg 66%
    12:00 +13°C° 0 mm 4 mps 778 mmHg 66%
    13:00 +13°C° 0 mm 4 mps 778 mmHg 66%
    14:00 +13°C° 0 mm 4 mps 777 mmHg 66%
    15:00 +12°C° 0 mm 3 mps 777 mmHg 71%
    16:00 +11°C° 0 mm 3 mps 777 mmHg 76%
    17:00 +10°C° 0 mm 2 mps 777 mmHg 81%
    18:00 +9°C° 0 mm 2 mps 777 mmHg 83%
    19:00 +8°C° 0 mm 2 mps 777 mmHg 85%
    20:00 +7°C° 0 mm 2 mps 777 mmHg 87%
    21:00 +7°C° 0 mm 2 mps 777 mmHg 88%
    22:00 +7°C° 0 mm 3 mps 777 mmHg 88%
    23:00 +7°C° 0 mm 3 mps 777 mmHg 89%
    Mostrar más